sat.trackr.live / text

‹ back to catalog

ONEWEB-0682

NORAD 56718 · 2023-068J

PAYLOAD ACTIVE UNKNOWN

§ Identity

Operator
Country
UK
Launch date
2023-05-20
Launch site
AFWTR
Launch vehicle
Mass (kg)
RCS (m²)

Purposes: comms

External: N2YO · Heavens-Above · Gunter

§ Orbital elements

Epoch: 2026-05-24T20:01:11.239104Z

Period
109.46 min
Inclination
87.8994°
Eccentricity
0.0002285
Mean motion
13.15547228 rev/d
Perigee alt
1,200.0 km
Apogee alt
1,203.5 km
Semi-major
7,579.9 km
B*
-3.4172e-4
RAAN
263.8460°
Arg perigee
111.8378°
Mean anomaly
248.2996°
Rev number
14,638

§ Raw data

ONEWEB-06821 56718U 23068J   26144.83415786 -.00000116  00000+0 -34172-3 0  99942 56718  87.8994 263.8460 0002285 111.8378 248.2996 13.15547228146389

JSON: /api/v1/satellites/56718 · /tle

For live sub-satellite position, see the globe view (requires WebGL).

§ Visibility from observer

Set your observer location to see the next 7 days of passes ≥ 10°. The values pass through the URL so the page stays shareable.

No JS? Fill the form by hand. The geolocation button needs JavaScript.